Lid_Strength_Index
-1 -1 -0 3 11 11 11 10 8 9 8 5 5 7 8 7 9 11 1 0 -0 -0 -1 -1 -1 -1 -1 -1 -2 -2 -2 -2 -2 -2 -2 -1 -1 -1 -1 -1 -1 -1 -1 -1 -2 -1 -1 -2 -1
-1 0 2 5 10 15 12 8 9 8 5 4 4 5 7 8 4 4 3 0 -0 -1 -1 -1 -1 -2 -1 -1 -1 -2 -2 -2 -2 -2 -2 -2 -1 -1 -2 -1 -1 -1 -1 -1 -1 -1 -1 -1 -1
-0 0 5 8 10 12 12 8 7 6 5 5 6 4 5 7 3 3 0 -0 -0 -0 -1 -1 -1 -1 -1 -1 -1 -2 -2 -2 -2 -2 -1 -1 -1 -1 -1 -1 -1 -1 -1 -1 -1 -1 -1 -1 -1
1 3 4 7 9 8 8 7 6 6 5 4 5 7 4 2 3 1 -0 -0 -0 -0 -1 -1 -1 -1 -1 -1 -1 -1 -1 -1 -1 -1 -1 -1 -1 -1 -1 -1 -1 -1 -1 -1 -1 -1 -1 -1 -1
1 4 8 8 8 7 6 5 5 6 6 5 5 7 6 2 1 0 0 -0 0 -0 -1 -1 -2 -1 -1 -1 -1 -1 -1 -1 -1 -1 -1 -1 -1 -1 -1 -1 -1 -1 -1 -1 -1 -1 -1 -1 -1
5 4 9 9 8 6 6 5 5 6 5 5 5 6 5 1 1 1 0 0 -0 -0 -1 -1 -1 -1 -1 -1 -1 -1 -1 -1 -1 -1 -1 -1 -1 -1 -1 -1 -1 -1 -1 -1 -1 -1 -1 -1 -1
6 7 9 7 8 7 6 4 5 5 6 5 4 7 4 3 1 0 0 -0 -0 -1 -0 -1 -1 -1 -1 -1 -1 -1 -1 -1 -1 -1 -1 -1 -1 -1 -1 -1 -1 -1 -1 -1 -1 -1 -1 -1 -1
4 6 7 8 8 7 5 5 4 5 6 3 3 7 6 3 1 0 -0 0 0 -0 -1 -1 -1 -1 -2 -1 -1 -1 -1 -1 -1 -1 -1 -1 -1 -1 -1 -1 -1 -1 -1 -1 -1 -1 -1 -1 -1
2 9 9 8 8 7 4 5 4 3 4 4 3 3 3 1 1 1 1 1 1 0 -0 -1 -1 -1 -2 -2 -1 -1 -1 -1 -1 -1 -1 -1 -1 -1 -2 -2 -1 -1 -1 -1 -1 -1 -1 -1 -1
4 11 8 5 5 6 5 4 4 5 5 5 4 3 2 2 2 2 2 2 1 1 1 -0 -0 -1 -1 -1 -2 -2 -2 -2 -2 -2 -2 -2 -2 -2 -2 -2 -1 -1 -1 -1 -1 -2 -2 -1 -1
4 9 6 5 4 4 5 5 4 5 6 5 5 4 3 2 2 2 2 2 1 1 0 -0 -0 -1 -1 -1 -1 -1 -1 -1 -2 -2 -2 -2 -2 -1 -1 -1 -1 -1 -2 -1 -1 -1 -1 -1 -1
5 4 4 4 4 4 5 4 5 4 4 3 3 3 3 3 3 2 2 2 1 1 0 -0 -1 -1 -1 -1 -1 -1 -1 -1 -1 -1 -2 -2 -1 -1 -2 -1 -1 -2 -1 -1 -2 -1 -2 -1 -2
5 4 4 4 4 4 4 5 5 4 3 2 3 3 3 3 2 2 1 1 1 1 0 -0 -1 -1 -1 -1 -1 -1 -1 -1 -1 -1 -2 -2 -1 -1 -1 -1 -1 -1 -2 -1 -1 -1 -1 -1 -1
4 4 4 4 4 4 5 5 5 4 3 3 3 3 3 3 2 2 2 1 1 1 0 -0 -0 -1 -1 -1 -1 -1 -2 -2 -1 -2 -2 -2 -1 -2 -1 -1 -1 -1 -2 -1 -1 -1 -0 -0 -1
4 5 5 4 4 5 4 6 6 4 3 4 4 3 3 3 2 2 1 1 1 1 0 -0 -0 -1 -1 -1 -1 -1 -1 -1 -1 -1 -2 -2 -2 -2 -2 -1 -1 -1 -2 -1 -1 -1 -1 -0 -1
5 5 7 5 4 5 5 8 5 4 4 4 4 4 3 3 2 2 1 1 1 0 0 -0 -0 -0 -1 -1 -1 -1 -1 -1 -1 -1 -1 -2 -2 -2 -2 -1 -0 -2 -2 -1 -0 -0 0 -0 -0
6 8 7 7 4 5 6 11 5 4 4 4 4 4 4 3 2 2 1 1 1 0 0 0 -0 -0 -1 -1 -1 -1 -2 -1 -1 -1 -1 -1 -2 -2 -1 -1 -1 -2 -1 -1 -0 -0 -0 -0 -0
8 8 7 8 6 6 7 8 5 5 4 4 4 4 4 3 3 2 1 1 1 0 -0 -0 -0 -0 -1 -1 -1 -1 -1 -1 -1 -1 -1 -2 -1 -2 -2 -1 -1 -1 -1 -0 -1 -0 -1 -0 -0
6 7 7 6 5 6 7 7 6 5 5 5 4 4 4 3 2 2 1 1 1 0 0 0 0 -0 -0 0 1 1 1 0 -0 -1 -2 -1 -1 -2 -2 -1 -1 -1 -0 -0 -1 -0 -1 0 -1
6 7 7 6 6 6 7 7 6 5 5 5 5 4 4 3 3 2 2 1 1 1 1 1 0 0 0 0 0 0 0 -0 -0 -1 -2 -2 -1 -2 -1 -1 -1 -1 -1 -1 -1 -1 1 0 -0
6 7 7 7 7 6 7 9 7 5 5 4 4 4 3 3 3 3 2 2 1 1 1 1 0 0 0 -0 -0 -0 -0 -0 0 -0 -0 -1 -1 -2 -2 -1 -1 -1 -1 -0 -1 -1 -0 1 -0
8 6 6 7 9 11 6 12 8 6 6 5 5 4 4 3 3 2 2 2 2 1 1 0 0 0 0 -0 0 0 1 2 1 0 -0 -0 -2 -1 -1 -2 -1 -1 -1 -1 -1 -1 -0 -0 1
7 5 6 6 8 9 8 10 8 6 7 6 5 4 4 3 3 3 2 2 1 1 1 1 0 0 0 -0 -0 1 1 0 0 -0 -1 -1 -1 -2 -1 -2 -1 -1 -1 -2 -1 -1 -1 -0 1
5 6 6 6 7 11 9 10 10 8 6 5 4 4 4 3 3 2 2 2 2 1 1 1 1 1 0 0 0 0 1 1 1 0 1 0 -0 -0 -1 -1 -1 -2 -1 -1 -1 -1 -1 -1 -0
6 7 11 11 11 12 8 9 9 6 5 5 4 4 4 3 3 3 3 2 2 2 1 1 1 1 1 1 0 0 0 0 0 0 1 -0 0 0 -0 -1 -1 -1 -1 -1 -1 -1 -1 -1 -0
7 7 10 14 13 11 8 10 8 5 4 4 3 3 3 3 3 3 2 2 2 2 1 1 1 2 1 1 1 0 0 1 0 0 0 0 0 -0 -1 -1 -1 -1 -1 -1 -1 -1 -0 -1 -0
7 8 6 9 8 10 9 7 6 5 5 4 4 3 3 3 3 3 2 2 2 2 2 1 1 1 1 1 1 1 0 0 0 -0 -0 -0 -1 -0 -1 -1 -1 -1 -1 -1 -1 -0 -0 -1 -1
6 5 9 8 13 14 10 9 9 7 6 5 4 4 3 3 3 3 2 2 2 1 1 1 1 1 1 1 1 1 0 0 0 -0 0 -0 -1 -1 -1 -0 -1 -1 -1 -1 -1 -1 -1 -1 -0
7 8 7 7 9 12 13 10 6 6 5 5 4 3 3 3 3 3 2 2 2 1 1 1 1 1 1 1 1 1 1 0 0 0 0 -0 -0 -0 -1 -0 -0 -0 -0 -1 -1 -1 -1 -0 -0
6 7 7 10 11 9 10 9 5 4 4 4 4 3 3 2 2 2 2 2 2 2 2 1 1 1 1 1 1 1 0 0 1 1 0 -0 0 -0 -0 -0 -0 -0 0 -0 -0 -0 -0 -0 0